This is the latest recevied weather packets stored in our database for station/object JA0BES-13. If no packets are shown the sender has not sent any weather packets the latest 10 day(s).
| Time | Temp. | Humidity | Pressure | Rain* | Wind** | Luminosity | Snow |
|---|---|---|---|---|---|---|---|
| 1777545058 | 12.22° C | 85% | 1015.8 hPa | 0 mm | - | - | - |
| 1777544457 | 12.22° C | 85% | 1015.9 hPa | 0 mm | - | - | - |
| 1777543857 | 12.22° C | 84% | 1015.8 hPa | 0 mm | - | - | - |
| 1777543257 | 12.22° C | 83% | 1015.8 hPa | 0 mm | - | - | - |
| 1777542656 | 12.22° C | 82% | 1015.9 hPa | 0 mm | - | - | - |
| 1777542056 | 12.78° C | 82% | 1016 hPa | 0 mm | - | - | - |
| 1777541456 | 12.78° C | 81% | 1015.9 hPa | 0 mm | - | - | - |
| 1777540855 | 12.78° C | 81% | 1015.8 hPa | 0 mm | - | - | - |
| 1777540255 | 12.78° C | 81% | 1015.9 hPa | 0 mm | - | - | - |
| 1777539654 | 12.78° C | 79% | 1016 hPa | 0 mm | - | - | - |
| 1777539054 | 13.33° C | 78% | 1015.7 hPa | 0 mm | - | - | - |
| 1777538454 | 13.33° C | 78% | 1015.7 hPa | 0 mm | - | - | - |
| 1777537854 | 13.33° C | 77% | 1015.8 hPa | 0 mm | - | - | - |
| 1777537253 | 13.33° C | 76% | 1015.8 hPa | 0 mm | - | - | - |
| 1777536653 | 13.33° C | 75% | 1015.7 hPa | 0 mm | - | - | - |
| 1777536052 | 13.33° C | 74% | 1015.6 hPa | 0 mm | - | - | - |
| 1777534851 | 13.89° C | 71% | 1015.5 hPa | 0 mm | - | - | - |
| 1777534251 | 14.44° C | 71% | 1015.4 hPa | 0 mm | - | - | - |
| 1777533651 | 13.89° C | 71% | 1015.4 hPa | 0 mm | - | - | - |
| 1777533051 | 14.44° C | 71% | 1015.4 hPa | 0 mm | - | - | - |
| 1777532450 | 14.44° C | 72% | 1015.6 hPa | 0 mm | - | - | - |
| 1777531850 | 14.44° C | 71% | 1015.8 hPa | 0 mm | - | - | - |
| 1777531249 | 14.44° C | 72% | 1015.7 hPa | 0 mm | - | - | - |
| 1777530649 | 14.44° C | 72% | 1015.7 hPa | 0 mm | - | - | - |
| 1777530049 | 14.44° C | 72% | 1015.7 hPa | 0 mm | - | - | - |
* Rain since midnight (hover to see other rain measurements)
** Current wind speed in m/s (hover to see current wind gust speed)